Regional Weather Roundup
Issued by NWS Grand Forks, ND

Home | Current Version | Previous Version | Graphics & Text | Print | Product List | Glossary On
Versions: 1 2 3 4 5 6 7 8 9 10 11 12 13 14 15 16 17 18 19 20 21 22 23 24 25 26 27 28 29 30 31 32 33 34 35 36 37 38 39 40 41 42 43 44 45 46 47 48 49 50
000
ASUS43 KFGF 011610
RWRFGF
PRAIRIE TO PINES  WEATHER ROUNDUP
NATIONAL WEATHER SERVICE EASTERN NORTH DAKOTA/GRAND FORKS ND
1100 AM CDT MON SEP 01 2014

 **SATELLITE DATA USED TO AUGMENT SKY COVER AT AUTOMATED STATIONS**
 *****  WEATHER ACROSS EASTERN NORTH DAKOTA  *****

CITY           SKY/WX    TMP DP  RH WIND       PRES   REMARKS
GRAND FORKS    MOSUNNY   68  56  65 CALM      29.70S
GRAND FRKS AFB PTSUNNY   69  59  72 NW5       29.71S
GRAND FRKS NWS   N/A     68 N/A N/A W3          N/A
DEVILS LAKE    SUNNY     63  54  72 W8        29.73R
FARGO          SUNNY     68  57  68 NW6       29.72S
WAHPETON ARPT  SUNNY     64  55  72 W5        29.75R
$$

 ***** WEATHER ACROSS CENTRAL AND WESTERN NORTH DAKOTA  *****

CITY           SKY/WX    TMP DP  RH WIND       PRES   REMARKS
BISMARCK       SUNNY     68  55  63 NW10      29.81R
MINOT          MOSUNNY   63  52  67 W7        29.79R
JAMESTOWN      PTSUNNY   66  55  67 W9        29.76R
MINOT AFB      SUNNY     62  54  74 NW7       29.78R
GARRISON         N/A     64  51  62 NW9       29.81R
WILLISTON      SUNNY     64  48  56 W9        29.85S
DICKINSON      MOSUNNY   62  49  62 NW13      29.86R
HETTINGER      SUNNY     64  52  64 NW13      29.88R
$$

 *****  OTHER AIRPORT OBSERVATIONS IN OUR AREA  *****

CITY           SKY/WX    TMP DP  RH WIND       PRES   REMARKS
WALHALLA         N/A     70  54  56 NW6       29.69S
GRAFTON AIRPOR FAIR      66  57  72 CALM      29.69S
VALLEY CITY AR FAIR      68  54  60 W8        29.75S
CANDO          FAIR      66  55  68 W9        29.75R
CAVALIER APRT  FAIR      68  55  64 NW8       29.69R
GWINNER        SUNNY     70  57  64 W12       29.77R
ROLLA          FAIR      66  54  63 SW10      29.75R
 ***** THE ABOVE OBSERVATIONS ARE NON NWS ARE NOT QUALITY
       CONTROLLED AND MAY MIS-REPORT RAIN FOR SNOW...
$$

  *****  WEATHER ACROSS NORTHERN MINNESOTA  *****

CITY           SKY/WX    TMP DP  RH WIND       PRES   REMARKS
FLAG ISLAND    PTSUNNY   61  55  82 NW14      29.64R
WARROAD        MOSUNNY   63  57  82 W9        29.67S
ROSEAU         SUNNY     64  57  77 NW8       29.68R
HALLOCK        SUNNY     64  55  72 CALM      29.69R
THF RVR FALLS  SUNNY     61  55  82 W8        29.71R
BAUDETTE       MOSUNNY   63  55  75 NW10G20   29.64S
WASKISH        PTSUNNY   63  55  77 W10G16    29.68R
CROOKSTON      MOSUNNY   63  59  88 CALM      29.72R
$$
  *****  WEATHER ACROSS CENTRAL AND WEST MINNESOTA  *****

CITY           SKY/WX    TMP DP  RH WIND       PRES   REMARKS
FOSSTON        MOSUNNY   64  55  72 W8        29.73R
BEMIDJI        MOSUNNY   64  53  67 NW15      29.71R
PARK RAPIDS    MOSUNNY   66  51  58 NW15      29.72R
ELBOW LAKE     FAIR      66  59  76 NW6       29.76R
WADENA         SUNNY     66  55  68 W7        29.73R
DETROIT LAKES  MOSUNNY   63  55  77 N7        29.75R
MOORHEAD       SUNNY     68  61  77 NW7       29.74R
FERGUS FALLS   SUNNY     66  59  77 NW7       29.75R
MORRIS MN      SUNNY     70  59  68 NW6       29.76R
STAPLES        SUNNY     66  55  68 W10       29.72R
$$
  *****  WEATHER ELSEWHERE ACROSS MINNESOTA  *****

CITY           SKY/WX    TMP DP  RH WIND       PRES   REMARKS
DULUTH         PTSUNNY   64  57  78 NW15G21   29.64S
INTRNTL FALLS  LGT RAIN  61  59  93 NW10      29.63R FOG
ELY            LGT RAIN  61  57  88 W3        29.61R
CLOQUET        PTSUNNY   64  57  77 NW13      29.66R
WHEATON        SUNNY     66  57  72 W3        29.78R
BRAINERD       MOSUNNY   64  55  72 N13       29.72R
HIBBING        CLOUDY    64  55  72 W8        29.65R
ALEXANDRIA     SUNNY     68  56  65 NW10      29.76R
SAINT CLOUD    PTSUNNY   72  60  66 NW14      29.71R
MINNEAPOLIS    CLOUDY    70  63  78 NW8       29.70R
$$

  *****  WEATHER ACROSS SOUTH DAKOTA  *****

CITY           SKY/WX    TMP DP  RH WIND       PRES   REMARKS
SIOUX FALLS    MOSUNNY   71  63  75 W8        29.82R
BROOKINGS      NOT AVBL
WATERTOWN      SUNNY     69  57  65 NW9       29.80R
HURON          SUNNY     70  56  61 N9        29.82R
SISSETON         N/A     72  57  59 N9        29.76R
ABERDEEN       SUNNY     68  57  68 W6        29.79R
MITCHELL       SUNNY     69  60  73 W8        29.84R
PIERRE         SUNNY     67  56  67 W9        29.85R
MOBRIDGE       SUNNY     66  54  65 W8        29.80S
RAPID CITY     MOSUNNY   68  47  46 NW6       29.94R
$$

  *****  SOME WEATHER IN NEARBY STATES *****

CITY           SKY/WX    TMP DP  RH WIND       PRES   REMARKS
GLASGOW MT     MOSUNNY   59  50  72 NW6       29.88R
GREAT FALLS MT MOSUNNY   61  39  44 SW10      29.97S
CHEYENNE WY    SUNNY     61  45  55 SW15      30.10S
SCOTTSBLUFF NE SUNNY     64  52  64 N5        30.02R
OMAHA NE       MOSUNNY   73  61  65 NW10      29.86R
DES MOINES IA  PTSUNNY   75  65  70 W16       29.79R
DAVENPORT IA   MOSUNNY   75  64  68 W16G24    29.79R
CHICAGO IL     LGT RAIN  75  69  81 SW8       29.78S
EAU CLAIRE WI  CLOUDY    69  66  90 SW8       29.66R
LA CROSSE WI   PTSUNNY   73  67  81 SW8       29.68R
$$

  *****  SOME NATIONAL WEATHER *****

CITY           SKY/WX    TMP DP  RH WIND       PRES   REMARKS
LA GUARDIA NY  PTSUNNY   85  67  54 SW9       29.98F
RALEIGH NC     PTSUNNY   89  72  56 VRB5      30.10F HX  96
ATLANTA GA     PTSUNNY   88  71  57 VRB3      30.16R HX  94
NEW ORLEANS LA PTSUNNY   88  77  69 SE13      30.06S THUNDER HX 100
OKLAHOMA CITY  PTSUNNY   86  70  58 S20G26    29.88S HX  90
ALBUQUERQUE NM MOSUNNY   76  40  27 S6        30.15R
SALT LAKE CITY MOSUNNY   66  42  41 E3        30.08R
LOS ANGELES CA PTSUNNY   73  64  73 CALM      29.83S
BOISE ID       SUNNY     59  43  55 NW7       30.11R
SEATTLE WA     CLOUDY    59  55  87 S7        30.11R
$$

*** WEATHER ACROSS MANITOBA...SASKATCHEWAN AND ONTARIO ***
                ***ONTARIO***

CITY           SKY/WX    TMP DP  RH WIND       PRES   REMARKS
GERALDTON      LGT RAIN  63  61  94 S13       29.48R
THUNDER BAY    CLOUDY    66  64  94 SW6       29.51S
SIOUX LOOKOUT  PTSUNNY   61  55  82 NW12      29.55R
TORONTO        PTSUNNY   79  70  73 S7        29.91F
BIG TROUT LK   CLOUDY    57  54  88 NE3       29.45S
PICKLE LAKE    LGT RAIN  57  55  94 NW9       29.46S FOG
DRYDEN         PTSUNNY   61  57  88 W7        29.58S
KENORA         PTSUNNY   61  54  77 NW10G18   29.63S
$$
                *** MANITOBA***

CITY           SKY/WX    TMP DP  RH WIND       PRES   REMARKS
BRANDON        PTSUNNY   64  50  59 NW13      29.72R
DAUPHIN        SUNNY     66  54  63 W10G18    29.66S
ISLAND LAKE    MOSUNNY   61  57  88 CALM      29.54S
PILOT MOUND      N/A     66  54  63 W6          N/A
THE PAS        MOSUNNY   61  50  67 NW10      29.62S
THOMPSON       MOSUNNY   63  48  59 NW10      29.54S
WINNIPEG       MOSUNNY   68  55  64 SW6       29.66S
CHURCHILL      CLOUDY    52  52 100 NW3       29.50F
GILLAM         CLOUDY    57  55  94 CALM      29.52S
$$
                ***SASKATCHEWAN***

CITY           SKY/WX    TMP DP  RH WIND       PRES   REMARKS
ESTEVAN        MOSUNNY   63  52  67 NW8       29.81S
KINDERSLEY     MOSUNNY   59  43  55 W6        29.82S
LLOYDMINSTER   MOSUNNY   59  43  55 W8        29.76F
PRINCE ALBERT  MOSUNNY   55  50  82 NW9       29.73R
REGINA         MOSUNNY   61  48  63 W12       29.80S
YORKTON        SUNNY     63  45  51 W17G23    29.71S
N. BATTLEFORD  SUNNY     57  46  67 W8        29.80S
LA RONGE       MOSUNNY   59  52  77 NW6       29.66S
SASKATOON      SUNNY     57  46  67 NW9       29.79S
SWIFT CURRENT  MOSUNNY   57  45  62 SW10      29.85S
$$
NOTE: THESE ARE AUTOMATED STATIONS WITH LIMITED QUALITY CONTROL
      "FAIR" INDICATES FEW OR NO CLOUDS BELOW 12,000 FEET WITH NO
      SIGNIFICANT WEATHER AND/OR OBSTRUCTIONS TO VISIBILITY.
      SKY/WX - SKY CONDITION AND SIGNIFICANT WEATHER.
      TMP - AIR TEMPERATURE.    DP   - DEWPOINT TEMPERATURE.
      RH  - RELATIVE HUMIDITY.  PRES - PRESSURE.
      HX  - HEAT INDEX.         WCI  - WIND CHILL INDEX.
$



USA.gov is the U.S. government's official web portal to all federal, state and local government web resources and services.